• In Deutschland
  • Länderverzeichnis
  • Für 7 Tage
  • Wassertemperatur
  • Satellitenkarten
  • Wetterkarte
  • Widgets
  • user-avatar
    Anmelden

    Stündliche Wetter Copiapo

    Heute, 19 September, Mittwoch

    Zeit Temperatur Niederschläge Wind Luftdruck Luftfeuchtigkeit
    00:00 +20°C° 0 mm 1 m/S 726 mmHg 52%
    01:00 +19°C° 0 mm 1 m/S 725 mmHg 54%
    02:00 +19°C° 0 mm 1 m/S 725 mmHg 53%
    03:00 +19°C° 0 mm 1 m/S 725 mmHg 52%
    04:00 +18°C° 0 mm 1 m/S 725 mmHg 51%
    05:00 +20°C° 0 mm 1 m/S 726 mmHg 46%
    06:00 +21°C° 0 mm 1 m/S 726 mmHg 42%
    07:00 +23°C° 0 mm 1 m/S 726 mmHg 37%
    08:00 +24°C° 0 mm 1 m/S 726 mmHg 32%
    09:00 +26°C° 0 mm 2 m/S 726 mmHg 28%
    10:00 +28°C° 0 mm 2 m/S 726 mmHg 24%
    11:00 +28°C° 0 mm 3 m/S 726 mmHg 23%
    12:00 +29°C° 0 mm 3 m/S 725 mmHg 22%
    13:00 +30°C° 0 mm 4 m/S 725 mmHg 22%
    14:00 +29°C° 0 mm 4 m/S 725 mmHg 24%
    15:00 +28°C° 0 mm 3 m/S 725 mmHg 27%
    16:00 +28°C° 0 mm 3 m/S 725 mmHg 29%
    17:00 +26°C° 0 mm 3 m/S 725 mmHg 34%
    18:00 +25°C° 0 mm 2 m/S 726 mmHg 39%
    19:00 +24°C° 0 mm 1 m/S 726 mmHg 44%
    20:00 +23°C° 0 mm 1 m/S 726 mmHg 44%
    21:00 +23°C° 0 mm 1 m/S 726 mmHg 44%
    22:00 +22°C° 0 mm 1 m/S 726 mmHg 44%
    23:00 +22°C° 0 mm 1 m/S 726 mmHg 44%

    Morgen, 20 September, Donnerstag

    Zeit Temperatur Niederschläge Wind Luftdruck Luftfeuchtigkeit
    00:00 +21°C° 0 mm 1 m/S 726 mmHg 43%
    01:00 +21°C° 0 mm 1 m/S 725 mmHg 42%
    02:00 +20°C° 0 mm 1 m/S 725 mmHg 41%
    03:00 +20°C° 0 mm 1 m/S 725 mmHg 40%
    04:00 +20°C° 0 mm 1 m/S 725 mmHg 39%
    05:00 +22°C° 0 mm 1 m/S 725 mmHg 34%
    06:00 +23°C° 0 mm 1 m/S 725 mmHg 28%
    07:00 +25°C° 0 mm 1 m/S 726 mmHg 23%
    08:00 +27°C° 0 mm 2 m/S 726 mmHg 19%
    09:00 +29°C° 0 mm 2 m/S 726 mmHg 16%
    10:00 +31°C° 0 mm 2 m/S 726 mmHg 13%
    11:00 +33°C° 0 mm 3 m/S 725 mmHg 13%
    12:00 +34°C° 0 mm 3 m/S 725 mmHg 13%
    13:00 +34°C° 0 mm 4 m/S 725 mmHg 12%
    14:00 +34°C° 0 mm 3 m/S 724 mmHg 14%
    15:00 +33°C° 0 mm 3 m/S 724 mmHg 16%
    16:00 +33°C° 0 mm 3 m/S 724 mmHg 17%
    17:00 +30°C° 0 mm 2 m/S 724 mmHg 21%
    18:00 +28°C° 0 mm 2 m/S 725 mmHg 25%
    19:00 +26°C° 0 mm 1 m/S 725 mmHg 29%
    20:00 +26°C° 0 mm 1 m/S 725 mmHg 29%
    21:00 +25°C° 0 mm 1 m/S 725 mmHg 28%
    22:00 +24°C° 0 mm 1 m/S 725 mmHg 28%
    23:00 +24°C° 0 mm 1 m/S 725 mmHg 27%

    übermorgen, 21 September, Freitag

    Zeit Temperatur Niederschläge Wind Luftdruck Luftfeuchtigkeit
    00:00 +23°C° 0 mm 1 m/S 724 mmHg 27%
    01:00 +23°C° 0 mm 1 m/S 724 mmHg 26%
    02:00 +23°C° 0 mm 1 m/S 724 mmHg 25%
    03:00 +22°C° 0 mm 1 m/S 723 mmHg 23%
    04:00 +22°C° 0 mm 1 m/S 723 mmHg 22%
    05:00 +24°C° 0 mm 1 m/S 723 mmHg 18%
    06:00 +26°C° 0 mm 1 m/S 724 mmHg 15%
    07:00 +29°C° 0 mm 1 m/S 724 mmHg 11%
    08:00 +31°C° 0 mm 2 m/S 724 mmHg 10%
    09:00 +34°C° 0 mm 2 m/S 724 mmHg 9%
    10:00 +36°C° 0 mm 2 m/S 724 mmHg 8%
    11:00 +36°C° 0 mm 3 m/S 724 mmHg 9%
    12:00 +36°C° 0 mm 3 m/S 724 mmHg 10%
    13:00 +36°C° 0 mm 4 m/S 723 mmHg 11%
    14:00 +35°C° 0 mm 4 m/S 723 mmHg 13%
    15:00 +34°C° 0 mm 3 m/S 723 mmHg 15%
    16:00 +33°C° 0 mm 3 m/S 723 mmHg 17%
    17:00 +30°C° 0 mm 2 m/S 724 mmHg 22%
    18:00 +28°C° 0 mm 2 m/S 724 mmHg 27%
    19:00 +26°C° 0 mm 1 m/S 724 mmHg 32%
    20:00 +26°C° 0 mm 1 m/S 725 mmHg 33%
    21:00 +25°C° 0 mm 1 m/S 725 mmHg 33%
    22:00 +24°C° 0 mm 1 m/S 725 mmHg 34%
    23:00 +23°C° 0 mm 1 m/S 725 mmHg 34%

    22 September, Samstag

    Zeit Temperatur Niederschläge Wind Luftdruck Luftfeuchtigkeit
    00:00 +23°C° 0 mm 1 m/S 724 mmHg 35%
    01:00 +22°C° 0 mm 1 m/S 724 mmHg 35%
    02:00 +21°C° 0 mm 1 m/S 724 mmHg 35%
    03:00 +21°C° 0 mm 1 m/S 724 mmHg 36%
    04:00 +20°C° 0 mm 1 m/S 724 mmHg 36%
    05:00 +22°C° 0 mm 1 m/S 724 mmHg 33%
    06:00 +23°C° 0 mm 1 m/S 725 mmHg 30%
    07:00 +25°C° 0 mm 1 m/S 726 mmHg 27%
    08:00 +26°C° 0 mm 1 m/S 726 mmHg 25%
    09:00 +28°C° 0 mm 2 m/S 726 mmHg 22%
    10:00 +29°C° 0 mm 3 m/S 726 mmHg 20%
    11:00 +30°C° 0 mm 3 m/S 726 mmHg 20%
    12:00 +30°C° 0 mm 3 m/S 726 mmHg 20%
    13:00 +31°C° 0 mm 3 m/S 725 mmHg 19%
    14:00 +31°C° 0 mm 3 m/S 725 mmHg 21%
    15:00 +30°C° 0 mm 3 m/S 725 mmHg 23%
    16:00 +29°C° 0 mm 3 m/S 725 mmHg 24%
    17:00 +28°C° 0 mm 3 m/S 725 mmHg 28%
    18:00 +27°C° 0 mm 2 m/S 725 mmHg 32%
    19:00 +25°C° 0 mm 2 m/S 726 mmHg 36%
    20:00 +25°C° 0 mm 1 m/S 726 mmHg 36%
    21:00 +24°C° 0 mm 1 m/S 725 mmHg 35%
    22:00 +24°C° 0 mm 1 m/S 725 mmHg 35%
    23:00 +23°C° 0 mm 1 m/S 725 mmHg 35%

    23 September, Sonntag

    Zeit Temperatur Niederschläge Wind Luftdruck Luftfeuchtigkeit
    00:00 +22°C° 0 mm 1 m/S 724 mmHg 35%
    01:00 +22°C° 0 mm 1 m/S 724 mmHg 35%
    02:00 +21°C° 0 mm 1 m/S 724 mmHg 35%
    03:00 +21°C° 0 mm 1 m/S 723 mmHg 35%
    04:00 +20°C° 0 mm 1 m/S 723 mmHg 35%
    05:00 +22°C° 0 mm 1 m/S 724 mmHg 32%
    06:00 +24°C° 0 mm 1 m/S 725 mmHg 29%
    07:00 +26°C° 0 mm 1 m/S 725 mmHg 26%
    08:00 +27°C° 0 mm 2 m/S 725 mmHg 24%
    09:00 +28°C° 0 mm 2 m/S 725 mmHg 23%
    10:00 +30°C° 0 mm 3 m/S 725 mmHg 21%
    11:00 +30°C° 0 mm 3 m/S 725 mmHg 21%
    12:00 +31°C° 0 mm 3 m/S 724 mmHg 20%
    13:00 +33°C° 0 mm 3 m/S 724 mmHg 20%
    14:00 +31°C° 0 mm 3 m/S 724 mmHg 20%
    15:00 +31°C° 0 mm 3 m/S 724 mmHg 21%
    16:00 +30°C° 0 mm 3 m/S 723 mmHg 22%
    17:00 +29°C° 0 mm 3 m/S 724 mmHg 26%
    18:00 +27°C° 0 mm 2 m/S 724 mmHg 30%
    19:00 +26°C° 0 mm 2 m/S 724 mmHg 33%
    20:00 +25°C° 0 mm 1 m/S 724 mmHg 34%
    21:00 +25°C° 0 mm 1 m/S 724 mmHg 34%
    22:00 +24°C° 0 mm 1 m/S 723 mmHg 34%
    23:00 +23°C° 0 mm 1 m/S 723 mmHg 35%

    24 September, Montag

    Zeit Temperatur Niederschläge Wind Luftdruck Luftfeuchtigkeit
    00:00 +22°C° 0 mm 1 m/S 723 mmHg 37%
    01:00 +22°C° 0 mm 1 m/S 723 mmHg 38%
    02:00 +21°C° 0 mm 1 m/S 722 mmHg 39%
    03:00 +21°C° 0 mm 1 m/S 722 mmHg 41%
    04:00 +20°C° 0 mm 1 m/S 722 mmHg 42%
    05:00 +22°C° 0 mm 1 m/S 723 mmHg 38%
    06:00 +23°C° 0 mm 1 m/S 724 mmHg 34%
    07:00 +25°C° 0 mm 1 m/S 725 mmHg 30%
    08:00 +27°C° 0 mm 1 m/S 725 mmHg 27%
    09:00 +28°C° 0 mm 2 m/S 725 mmHg 24%
    10:00 +30°C° 0 mm 3 m/S 725 mmHg 20%
    11:00 +30°C° 0 mm 3 m/S 724 mmHg 20%
    12:00 +31°C° 0 mm 3 m/S 724 mmHg 20%
    13:00 +31°C° 0 mm 3 m/S 723 mmHg 20%
    14:00 +31°C° 0 mm 3 m/S 723 mmHg 20%
    15:00 +31°C° 0 mm 3 m/S 723 mmHg 21%
    16:00 +30°C° 0 mm 3 m/S 723 mmHg 21%
    17:00 +29°C° 0 mm 2 m/S 724 mmHg 25%
    18:00 +27°C° 0 mm 1 m/S 724 mmHg 29%
    19:00 +26°C° 0 mm 1 m/S 724 mmHg 33%
    20:00 +25°C° 0 mm 1 m/S 724 mmHg 34%
    21:00 +22°C° 0 mm 0 m/S 724 mmHg 35%
    22:00 +22°C° 0 mm 0 m/S 725 mmHg 36%
    23:00 +21°C° 0 mm 0 m/S 724 mmHg 36%
    Mehr zeigen